Weather History for KBIX - June, 2013

Change the Weather History Date:

Wednesday, June 19, 2013

  Actual Average Record
Temperature  
Mean Temperature 80 °F -  
Max Temperature 88 °F 89 °F 100 °F (1953)
Min Temperature 74 °F 73 °F 65 °F (1965)
Cooling Degree Days 16    
Growing Degree Days 30 (Base 50)    
Moisture  
Dew Point 72 °F    
Average Humidity 72    
Maximum Humidity 86    
Minimum Humidity 57    
Precipitation  
Precipitation 0.00 in - - ()
Sea Level Pressure  
Sea Level Pressure 30.00 in    
Wind  
Wind Speed 2 mph (NW)    
Max Wind Speed 6 mph    
Max Gust Speed -    
Visibility 10 miles    
Events      
Averages and records for this station are not official NWS values.
T = Trace of Precipitation, MM = Missing Value Source: NWS Daily Summary

Daily Weather History Graph

Daily Weather History Graph

Search for Another Location

Airport or City:

Trip Planner

Search our weather history database for the weather conditions in past years. The results will help you decide how hot, cold, wet, or windy it might be!

Date:

Astronomy

Jun. 19, 2013 Rise Set
Actual Time 5:53 AM CDT 8:00 PM CDT
Civil Twilight 5:26 AM CDT 8:28 PM CDT
Nautical Twilight 4:52 AM CDT 9:01 PM CDT
Astronomical Twilight 4:16 AM CDT 9:37 PM CDT
Moon 4:03 PM CDT (6/19) 2:25 AM CDT (6/19)
Length of Visible Light 15h 02m
Length of Day
14h 06m
Waxing Gibbous, 80% of the Moon is Illuminated
Jun 19
Waxing Gibbous
Jun 23
Full
Jun 29
Last Quarter
Jul 8
New
Jul 15
First Quarter

Hourly Weather History & Observations

Time (CDT) Temp. Heat Index Dew Point Humidity Pressure Visibility Wind Dir Wind Speed Gust Speed Precip Events Conditions
12:58 AM 77.4 °F - 70.2 °F 78% 29.99 in 10.0 mi Calm Calm - N/A   Mostly Cloudy
1:58 AM 76.8 °F - 69.6 °F 78% 29.97 in 10.0 mi North 4.6 mph - N/A   Clear
2:58 AM 74.7 °F - 69.4 °F 84% 29.95 in 10.0 mi ENE 3.5 mph - N/A   Clear
3:58 AM 75.2 °F - 69.6 °F 83% 29.95 in 10.0 mi Calm Calm - N/A   Clear
4:58 AM 74.5 °F - 69.8 °F 85% 29.96 in 10.0 mi Calm Calm - N/A   Clear
5:58 AM 75.9 °F - 70.7 °F 84% 29.98 in 10.0 mi Calm Calm - N/A   Mostly Cloudy
6:58 AM 77.7 °F - 73.2 °F 86% 29.99 in 10.0 mi Calm Calm - N/A   Mostly Cloudy
7:58 AM 81.9 °F 87.5 °F 73.6 °F 76% 30.01 in 10.0 mi WSW 4.6 mph - N/A   Scattered Clouds
8:58 AM 84.4 °F 92.0 °F 74.3 °F 72% 30.02 in 10.0 mi Variable 2.3 mph - N/A   Scattered Clouds
9:58 AM 84.7 °F 92.1 °F 73.9 °F 70% 30.03 in 10.0 mi Variable 4.6 mph - N/A   Mostly Cloudy
10:58 AM 84.4 °F 91.7 °F 73.9 °F 71% 30.04 in 10.0 mi Variable 5.8 mph - N/A   Scattered Clouds
11:58 AM 85.6 °F 92.2 °F 72.5 °F 65% 30.03 in 10.0 mi Variable 1.2 mph - N/A   Mostly Cloudy
12:58 PM 84.9 °F 91.1 °F 72.3 °F 66% 30.03 in 10.0 mi Variable 4.6 mph - N/A   Mostly Cloudy
1:58 PM 87.6 °F 93.5 °F 71.1 °F 58% 30.02 in 10.0 mi Variable 4.6 mph - N/A   Mostly Cloudy
2:58 PM 86.2 °F 91.1 °F 70.5 °F 59% 30.01 in 10.0 mi Variable 2.3 mph - N/A   Partly Cloudy
3:58 PM 86.9 °F 92.1 °F 70.3 °F 58% 29.99 in 10.0 mi NW 5.8 mph - N/A   Partly Cloudy
4:58 PM 87.8 °F 93.4 °F 71.1 °F 57% 29.99 in 10.0 mi Variable 2.3 mph - N/A   Scattered Clouds
5:58 PM 87.4 °F 93.1 °F 70.9 °F 58% 29.99 in 10.0 mi WNW 3.5 mph - N/A   Mostly Cloudy
6:58 PM 85.5 °F 91.1 °F 71.4 °F 63% 30.00 in 10.0 mi NW 4.6 mph - N/A   Mostly Cloudy
7:58 PM 84.7 °F 90.4 °F 71.8 °F 65% 30.00 in 10.0 mi WNW 4.6 mph - N/A   Mostly Cloudy
8:58 PM 82.9 °F 88.0 °F 72.0 °F 69% 30.02 in 10.0 mi NW 2.3 mph - N/A   Clear
9:58 PM 81.0 °F 85.1 °F 71.4 °F 73% 30.02 in 10.0 mi NW 2.3 mph - N/A   Clear
10:58 PM 80.1 °F 84.5 °F 73.9 °F 81% 30.04 in 10.0 mi NE 2.3 mph - N/A   Overcast
11:58 PM 80.2 °F 84.9 °F 73.9 °F 81% 30.05 in 10.0 mi NNW 3.5 mph - N/A   Clear